Location: North Bay Shore
(40.7362°N, 73.2626°W)
Time: 04:51:25
(UTC+00:00)

Cosmos 1553 Rocket - Pass Details

Date: 29 October 2020
Orbit: 940 x 1009 km, 82.9° (Epoch: 29 November)

Event Time Altitude Azimuth Distance (km) Brightness Sun altitude
Rises 22:53:09 0° 182° (S) 3,713 7.2 -12.1°
Reaches altitude 10° 22:55:41 10° 181° (S) 2,761 6.5 -12.5°
Maximum altitude 23:02:02 81° 95° (E) 1,007 4.0 -13.7°
Drops below altitude 10° 23:08:19 10° 9° (N) 2,735 6.2 -14.9°
Sets 23:10:49 0° 9° (N) 3,677 6.9 -15.4°
